Time,TemperatureF,DewpointF,PressureIn,WindDirection,WindDirectionDegrees,WindSpeedMPH,WindSpeedGustMPH,Humidity,HourlyPrecipIn,Conditions,Clouds,dailyrainin,SoftwareType,DateUTC
2013-05-23 00:05:00,51.7,52.0,29.89,ENE,71,0.0,5.0,100,0.00,,,0.00,weatherlink.com 1.10,2013-05-23 04:05:00,
2013-05-23 01:17:00,50.8,51.0,29.89,WNW,289,0.0,2.0,100,0.00,,,0.00,weatherlink.com 1.10,2013-05-23 05:17:00,
2013-05-23 01:34:00,51.0,51.0,29.88,West,264,0.0,2.0,100,0.00,,,0.00,weatherlink.com 1.10,2013-05-23 05:34:00,
2013-05-23 01:50:00,51.7,52.0,29.87,North,350,1.0,2.0,100,0.00,,,0.00,weatherlink.com 1.10,2013-05-23 05:50:00,
2013-05-23 02:06:00,51.5,52.0,29.86,WNW,284,0.0,1.0,100,0.00,,,0.00,weatherlink.com 1.10,2013-05-23 06:06:00,
2013-05-23 02:22:00,51.5,52.0,29.85,NNW,336,0.0,2.0,100,0.00,,,0.00,weatherlink.com 1.10,2013-05-23 06:22:00,
2013-05-23 02:39:00,51.7,52.0,29.84,West,262,0.0,2.0,100,0.00,,,0.00,weatherlink.com 1.10,2013-05-23 06:39:00,
2013-05-23 02:55:00,51.7,52.0,29.84,West,264,0.0,2.0,100,0.00,,,0.00,weatherlink.com 1.10,2013-05-23 06:55:00,
2013-05-23 03:11:00,51.8,52.0,29.84,West,265,0.0,1.0,100,0.00,,,0.00,weatherlink.com 1.10,2013-05-23 07:11:00,
2013-05-23 03:27:00,51.9,52.0,29.84,West,264,0.0,1.0,100,0.00,,,0.00,weatherlink.com 1.10,2013-05-23 07:27:00,
2013-05-23 03:44:00,51.6,52.0,29.84,WNW,285,0.0,1.0,100,0.00,,,0.00,weatherlink.com 1.10,2013-05-23 07:44:00,
2013-05-23 04:00:00,50.9,51.0,29.84,West,277,0.0,2.0,100,0.00,,,0.00,weatherlink.com 1.10,2013-05-23 08:00:00,
2013-05-23 04:16:00,50.7,51.0,29.84,NNW,344,1.0,2.0,100,0.00,,,0.00,weatherlink.com 1.10,2013-05-23 08:16:00,
2013-05-23 04:32:00,50.7,51.0,29.85,NW,308,0.0,1.0,100,0.00,,,0.00,weatherlink.com 1.10,2013-05-23 08:32:00,
2013-05-23 04:49:00,50.3,50.0,29.85,WSW,253,1.0,3.0,100,0.00,,,0.00,weatherlink.com 1.10,2013-05-23 08:49:00,
2013-05-23 05:05:00,50.1,50.0,29.85,SW,218,2.0,3.0,100,0.00,,,0.00,weatherlink.com 1.10,2013-05-23 09:05:00,
2013-05-23 05:21:00,49.9,50.0,29.86,West,265,1.0,3.0,100,0.00,,,0.00,weatherlink.com 1.10,2013-05-23 09:21:00,
2013-05-23 05:37:00,50.0,50.0,29.86,ENE,69,0.0,4.0,100,0.00,,,0.00,weatherlink.com 1.10,2013-05-23 09:37:00,
2013-05-23 05:53:00,50.2,50.0,29.86,West,261,1.0,6.0,100,0.00,,,0.00,weatherlink.com 1.10,2013-05-23 09:53:00,
2013-05-23 06:09:00,50.3,50.0,29.87,North,5,1.0,4.0,100,0.00,,,0.00,weatherlink.com 1.10,2013-05-23 10:09:00,
2013-05-23 06:26:00,50.6,51.0,29.87,WNW,289,0.0,3.0,100,0.00,,,0.00,weatherlink.com 1.10,2013-05-23 10:26:00,
2013-05-23 06:42:00,50.7,51.0,29.87,NNW,337,1.0,4.0,100,0.00,,,0.00,weatherlink.com 1.10,2013-05-23 10:42:00,
2013-05-23 06:58:00,50.9,51.0,29.87,SW,231,0.0,4.0,100,0.00,,,0.00,weatherlink.com 1.10,2013-05-23 10:58:00,
2013-05-23 07:14:00,51.1,51.0,29.87,NE,53,2.0,7.0,100,0.00,,,0.00,weatherlink.com 1.10,2013-05-23 11:14:00,
2013-05-23 07:30:00,51.2,51.0,29.87,North,357,1.0,3.0,100,0.00,,,0.00,weatherlink.com 1.10,2013-05-23 11:30:00,
2013-05-23 07:47:00,52.0,52.0,29.88,NNW,332,0.0,3.0,100,0.00,,,0.00,weatherlink.com 1.10,2013-05-23 11:47:00,
2013-05-23 08:03:00,52.2,52.0,29.87,NW,323,0.0,4.0,100,0.00,,,0.00,weatherlink.com 1.10,2013-05-23 12:03:00,
2013-05-23 08:19:00,53.0,53.0,29.87,WSW,252,0.0,2.0,100,0.00,,,0.00,weatherlink.com 1.10,2013-05-23 12:19:00,
2013-05-23 08:35:00,54.0,54.0,29.86,West,261,0.0,2.0,100,0.00,,,0.00,weatherlink.com 1.10,2013-05-23 12:35:00,
2013-05-23 08:52:00,56.0,56.0,29.87,North,351,0.0,2.0,100,0.00,,,0.00,weatherlink.com 1.10,2013-05-23 12:52:00,
2013-05-23 09:08:00,55.4,55.0,29.86,NNW,337,0.0,2.0,100,0.00,,,0.00,weatherlink.com 1.10,2013-05-23 13:08:00,
2013-05-23 09:24:00,56.6,57.0,29.86,NNW,339,0.0,2.0,100,0.00,,,0.00,weatherlink.com 1.10,2013-05-23 13:24:00,
2013-05-23 09:40:00,58.8,59.0,29.86,NNE,22,1.0,4.0,100,0.00,,,0.00,weatherlink.com 1.10,2013-05-23 13:40:00,
2013-05-23 09:57:00,64.9,65.0,29.86,SSE,153,4.0,8.0,100,0.00,,,0.00,weatherlink.com 1.10,2013-05-23 13:57:00,
2013-05-23 10:13:00,66.2,66.0,29.86,West,274,3.0,5.0,100,0.00,,,0.00,weatherlink.com 1.10,2013-05-23 14:13:00,
2013-05-23 10:29:00,67.1,64.0,29.85,NE,42,7.0,7.0,90,0.00,,,0.00,weatherlink.com 1.10,2013-05-23 14:29:00,
2013-05-23 10:45:00,67.4,64.0,29.85,WNW,286,2.0,7.0,88,0.00,,,0.00,weatherlink.com 1.10,2013-05-23 14:45:00,
2013-05-23 11:02:00,68.2,65.0,29.84,NW,324,0.0,5.0,88,0.00,,,0.00,weatherlink.com 1.10,2013-05-23 15:02:00,
2013-05-23 11:18:00,71.3,67.0,29.84,North,350,0.0,8.0,86,0.00,,,0.00,weatherlink.com 1.10,2013-05-23 15:18:00,
2013-05-23 11:34:00,71.8,66.0,29.84,NNW,334,2.0,4.0,83,0.00,,,0.00,weatherlink.com 1.10,2013-05-23 15:34:00,
2013-05-23 11:50:00,71.3,67.0,29.84,NW,323,2.0,6.0,85,0.00,,,0.00,weatherlink.com 1.10,2013-05-23 15:50:00,
2013-05-23 12:07:00,73.5,67.0,29.84,SW,228,5.0,10.0,81,0.00,,,0.00,weatherlink.com 1.10,2013-05-23 16:07:00,
2013-05-23 12:24:00,73.7,66.0,29.83,WSW,251,0.0,8.0,78,0.00,,,0.00,weatherlink.com 1.10,2013-05-23 16:24:00,
2013-05-23 12:40:00,74.9,68.0,29.83,West,272,2.0,6.0,79,0.00,,,0.00,weatherlink.com 1.10,2013-05-23 16:40:00,
2013-05-23 12:56:00,74.9,67.0,29.83,SW,232,9.0,10.0,76,0.00,,,0.00,weatherlink.com 1.10,2013-05-23 16:56:00,
2013-05-23 13:12:00,74.7,66.0,29.82,WSW,247,7.0,13.0,75,0.00,,,0.00,weatherlink.com 1.10,2013-05-23 17:12:00,
2013-05-23 13:29:00,75.2,67.0,29.81,WSW,242,6.0,12.0,75,0.00,,,0.00,weatherlink.com 1.10,2013-05-23 17:29:00,
2013-05-23 13:45:00,75.3,67.0,29.81,WNW,282,2.0,8.0,76,0.00,,,0.00,weatherlink.com 1.10,2013-05-23 17:45:00,
2013-05-23 14:01:00,75.4,67.0,29.80,SW,225,5.0,7.0,76,0.00,,,0.00,weatherlink.com 1.10,2013-05-23 18:01:00,
2013-05-23 14:17:00,75.2,66.0,29.81,WSW,237,2.0,17.0,72,0.00,,,0.00,weatherlink.com 1.10,2013-05-23 18:17:00,
2013-05-23 14:34:00,74.0,65.0,29.81,WSW,237,8.0,14.0,73,0.00,,,0.00,weatherlink.com 1.10,2013-05-23 18:34:00,
2013-05-23 14:50:00,73.4,66.0,29.81,NW,325,2.0,8.0,78,0.00,,,0.00,weatherlink.com 1.10,2013-05-23 18:50:00,
2013-05-23 15:06:00,71.2,65.0,29.82,WSW,242,2.0,7.0,82,0.00,,,0.00,weatherlink.com 1.10,2013-05-23 19:06:00,
2013-05-23 15:22:00,69.3,65.0,29.81,WSW,249,1.0,6.0,87,0.01,,,0.01,weatherlink.com 1.10,2013-05-23 19:22:00,
2013-05-23 15:38:00,68.1,65.0,29.82,WSW,258,2.0,8.0,89,0.01,,,0.01,weatherlink.com 1.10,2013-05-23 19:38:00,
2013-05-23 15:55:00,67.7,65.0,29.81,WSW,253,2.0,8.0,91,0.01,,,0.01,weatherlink.com 1.10,2013-05-23 19:55:00,
2013-05-23 16:11:00,67.7,64.0,29.80,WSW,242,7.0,17.0,87,0.02,,,0.02,weatherlink.com 1.10,2013-05-23 20:11:00,
2013-05-23 16:27:00,67.9,63.0,29.80,WSW,242,2.0,13.0,85,0.01,,,0.02,weatherlink.com 1.10,2013-05-23 20:27:00,
2013-05-23 16:44:00,67.9,64.0,29.79,WSW,242,2.0,9.0,86,0.01,,,0.02,weatherlink.com 1.10,2013-05-23 20:44:00,
2013-05-23 17:00:00,68.2,64.0,29.79,NE,52,2.0,14.0,85,0.00,,,0.02,weatherlink.com 1.10,2013-05-23 21:00:00,
2013-05-23 17:16:00,68.4,63.0,29.79,SSW,199,6.0,13.0,84,0.00,,,0.02,weatherlink.com 1.10,2013-05-23 21:16:00,
2013-05-23 17:32:00,68.2,64.0,29.79,South,179,5.0,14.0,86,0.00,,,0.02,weatherlink.com 1.10,2013-05-23 21:32:00,
2013-05-23 17:48:00,68.4,64.0,29.79,WSW,241,1.0,14.0,86,0.00,,,0.02,weatherlink.com 1.10,2013-05-23 21:48:00,
2013-05-23 18:05:00,68.4,64.0,29.80,WNW,295,1.0,10.0,85,0.00,,,0.02,weatherlink.com 1.10,2013-05-23 22:05:00,
2013-05-23 18:21:00,68.2,64.0,29.80,SW,231,2.0,8.0,87,0.00,,,0.02,weatherlink.com 1.10,2013-05-23 22:21:00,
2013-05-23 18:37:00,68.2,64.0,29.79,ENE,60,3.0,10.0,86,0.00,,,0.02,weatherlink.com 1.10,2013-05-23 22:37:00,
2013-05-23 18:53:00,67.7,64.0,29.79,WSW,253,0.0,5.0,87,0.00,,,0.02,weatherlink.com 1.10,2013-05-23 22:53:00,
2013-05-23 19:10:00,67.3,64.0,29.80,WSW,246,2.0,5.0,89,0.00,,,0.02,weatherlink.com 1.10,2013-05-23 23:10:00,
2013-05-23 19:26:00,67.2,64.0,29.79,NW,306,5.0,9.0,88,0.00,,,0.02,weatherlink.com 1.10,2013-05-23 23:26:00,
2013-05-23 19:42:00,67.0,64.0,29.79,SSW,213,2.0,7.0,89,0.00,,,0.02,weatherlink.com 1.10,2013-05-23 23:42:00,
2013-05-23 19:58:00,66.3,63.0,29.79,South,190,5.0,12.0,90,0.00,,,0.02,weatherlink.com 1.10,2013-05-23 23:58:00,
2013-05-23 20:14:00,65.9,63.0,29.78,West,267,9.0,19.0,90,0.01,,,0.03,weatherlink.com 1.10,2013-05-24 00:14:00,
2013-05-23 20:31:00,65.6,63.0,29.78,WSW,237,3.0,20.0,91,0.01,,,0.03,weatherlink.com 1.10,2013-05-24 00:31:00,
2013-05-23 20:47:00,65.4,63.0,29.77,NNW,343,1.0,14.0,91,0.01,,,0.03,weatherlink.com 1.10,2013-05-24 00:47:00,
2013-05-23 21:03:00,65.6,63.0,29.77,West,268,10.0,16.0,91,0.01,,,0.03,weatherlink.com 1.10,2013-05-24 01:03:00,
2013-05-23 21:19:00,65.6,63.0,29.77,NNW,331,1.0,15.0,90,0.00,,,0.03,weatherlink.com 1.10,2013-05-24 01:19:00,
2013-05-23 21:36:00,65.5,62.0,29.78,WSW,249,3.0,12.0,90,0.00,,,0.03,weatherlink.com 1.10,2013-05-24 01:36:00,
2013-05-23 21:52:00,65.5,62.0,29.77,NNW,337,3.0,14.0,90,0.00,,,0.03,weatherlink.com 1.10,2013-05-24 01:52:00,
2013-05-23 22:08:00,65.5,62.0,29.76,WSW,251,3.0,13.0,90,0.00,,,0.03,weatherlink.com 1.10,2013-05-24 02:08:00,
2013-05-23 22:24:00,65.2,62.0,29.77,SW,235,1.0,7.0,90,0.00,,,0.03,weatherlink.com 1.10,2013-05-24 02:24:00,
2013-05-23 22:40:00,65.4,63.0,29.76,SW,230,3.0,13.0,91,0.00,,,0.03,weatherlink.com 1.10,2013-05-24 02:40:00,
2013-05-23 22:57:00,65.5,62.0,29.75,WSW,241,4.0,12.0,90,0.00,,,0.03,weatherlink.com 1.10,2013-05-24 02:57:00,
2013-05-23 23:13:00,65.1,63.0,29.76,WSW,251,2.0,7.0,92,0.00,,,0.03,weatherlink.com 1.10,2013-05-24 03:13:00,
2013-05-23 23:29:00,65.1,63.0,29.75,SW,220,4.0,6.0,92,0.00,,,0.03,weatherlink.com 1.10,2013-05-24 03:29:00,
2013-05-23 23:45:00,64.9,63.0,29.75,NW,305,1.0,5.0,93,0.00,,,0.03,weatherlink.com 1.10,2013-05-24 03:45:00,